[[{"header":{"parameterUnit":"m.s-1","parameterCategory":1,"la1":30.2991,"la2":30.254,"lo1":-89.0895,"lo2":-89.0444,"dy":0.0017,"dx":0.0017,"nx":28,"ny":28,"refTime":"2025-03-11T09:00:00:Z","depth":0,"parameterNumber":2,"parameterNumberName":"U-component_of_WINDS"},"data":[0,0,0,0,0,0,0,0,0,0,0,0,0,0,0,0,0,0,0,0,0,0,0,0,0,0,0,0,0,0,0,0,0,0,0,0,0,0,0,0,0,0,0,0,0,0,0,0,0,0,0,0,0,0,0,0,0,0,1.3435,1.3435,0,1.3407,1.3407,1.3406,1.337,1.337,1.3369,1.3369,1.334,1.334,1.334,0,0,0,0,0,0,0,0,0,0,0,0,0,1.3458,1.3457,1.3435,1.3435,1.3434,1.3407,1.3407,1.3406,1.337,1.337,1.3369,1.3368,1.334,1.334,1.334,0,0,0,0,0,0,0,0,0,0,0,0,0,1.3441,1.3457,1.3435,1.3413,1.3411,1.3407,1.3407,1.3406,1.3371,1.337,1.3369,1.3368,1.334,1.334,1.334,1.3356,0,0,1.3339,1.3339,0,0,0,0,0,0,0,0,1.3442,1.344,1.3417,1.3415,1.3412,1.3391,1.3404,1.3389,1.3371,1.3386,1.3369,1.3367,1.3358,1.3356,1.3353,1.3354,1.3353,1.3339,1.3339,1.3338,1.3338,0,0,0,0,0,0,0,1.3443,1.3441,1.3424,1.3417,1.3414,1.3405,1.3401,1.3401,1.3377,1.3385,1.3382,1.3379,1.3357,1.3353,1.3352,1.3353,1.3339,1.3339,1.3338,1.3338,1.3366,1.3367,0,0,0,0,0,0,1.3447,1.3442,1.3425,1.3423,1.3425,1.3405,1.3401,1.3399,1.3377,1.3373,1.338,1.3377,1.3354,1.3352,1.3351,1.3368,1.3339,1.3338,1.3338,1.3365,1.3366,1.3367,0,0,0,0,0,0,1.3448,1.3446,1.3426,1.3432,1.3429,1.3406,1.3403,1.3399,1.3395,1.3373,1.3369,1.3381,1.3353,1.3351,1.3355,1.3367,1.3338,1.3338,1.3364,1.3365,1.3366,1.3404,0,0,0,0,0,0,1.3449,1.3447,1.3452,1.3432,1.3428,1.3431,1.3404,1.3399,1.3395,1.3392,1.3373,1.3369,1.3353,1.3355,1.3354,1.3366,1.3338,1.3363,1.3364,1.3366,1.3401,1.3406,1.341,0,0,0,0,0,1.345,1.3464,1.3453,1.3451,1.3435,1.3431,1.3429,1.3409,1.3396,1.3402,1.3388,1.337,1.3365,1.3356,1.3355,1.3366,1.3362,1.3364,1.3366,1.3399,1.3405,1.341,0,0,0,0,0,0,1.3487,1.3461,1.3448,1.3457,1.3446,1.3425,1.3432,1.3416,1.341,1.3407,1.3382,1.3379,1.3385,1.3376,1.3366,1.3381,1.3361,1.3363,1.3387,1.3392,1.3397,1.34,1.3337,0,0,0,0,0,1.3495,1.3494,1.3472,1.3481,1.3477,1.3455,1.3453,1.3438,1.3427,1.3423,1.3409,1.3398,1.3394,1.3393,1.3388,1.3399,1.3395,1.3406,1.3411,1.3415,1.3417,1.3423,1.3428,1.3374,1.3374,1.3374,0,0,1.3514,1.35,1.3501,1.3489,1.3479,1.3479,1.3452,1.3453,1.3452,1.3423,1.3425,1.3415,1.3401,1.3409,1.3412,1.3402,1.3431,1.3417,1.3421,1.3421,1.3426,1.3431,1.3436,1.3375,1.3375,1.3375,0,0,1.3549,1.3538,1.3545,1.3535,1.3521,1.3506,1.3508,1.3489,1.3481,1.3483,1.3461,1.346,1.3453,1.3445,1.344,1.3471,1.3455,1.347,1.3494,1.35,1.3504,1.3508,1.352,1.3525,1.3472,1.3472,1.3472,0,1.3574,1.3573,1.355,1.3552,1.3548,1.352,1.3527,1.3519,1.3504,1.3502,1.349,1.3482,1.3471,1.3477,1.3484,1.348,1.3482,1.3473,1.3506,1.3509,1.3512,1.3524,1.3528,1.3474,1.3474,1.3473,1.3473,0,1.3605,1.3604,1.3612,1.3598,1.3594,1.3598,1.3577,1.3575,1.356,1.3547,1.355,1.3535,1.3528,1.3527,1.3513,1.3531,1.3526,1.351,1.349,1.352,1.353,1.3534,1.3477,1.3476,1.3475,1.3475,0,0,1.3664,1.3637,1.364,1.3633,1.3615,1.3614,1.3617,1.3609,1.3609,1.3599,1.3602,1.3597,1.3582,1.3576,1.3561,1.3566,1.3592,1.355,1.3549,1.3559,1.3612,1.3626,1.3631,1.3581,1.3581,1.3582,1.3614,0,1.3696,1.37,1.368,1.3689,1.3689,1.3662,1.3665,1.3654,1.3641,1.3639,1.3624,1.3622,1.3602,1.3599,1.3603,1.3588,1.3603,1.3586,1.3584,1.3584,1.359,1.3636,1.365,1.3681,1.3618,1.3618,1.3619,0,1.3735,1.3727,1.3737,1.3718,1.3717,1.372,1.3711,1.3708,1.3696,1.3686,1.3679,1.3661,1.3663,1.3643,1.3646,1.3634,1.3632,1.3625,1.3626,1.3626,1.3605,1.3639,1.369,1.3696,1.3625,1.3624,1.3624,0,1.3778,1.377,1.3775,1.377,1.3747,1.375,1.3741,1.3727,1.3724,1.3716,1.3713,1.3706,1.3702,1.3696,1.3677,1.3664,1.3682,1.366,1.3675,1.3676,1.3682,1.3682,1.3735,1.3678,1.3678,1.3678,1.3678,0,1.3817,1.3825,1.3794,1.3797,1.3805,1.378,1.3788,1.3777,1.3764,1.3765,1.3741,1.3742,1.3715,1.3713,1.3698,1.3703,1.3701,1.3694,1.369,1.3697,1.3698,1.3697,1.3695,1.3679,1.3679,1.3678,1.3678,0,1.3868,1.3848,1.3852,1.383,1.3824,1.3831,1.3813,1.3815,1.38,1.3801,1.38,1.3777,1.3774,1.3753,1.3745,1.3734,1.3746,1.3737,1.375,1.3748,1.3765,1.3764,1.382,1.3827,1.3764,1.3764,1.3765,0,1.3896,1.3901,1.3879,1.3878,1.387,1.3868,1.3864,1.384,1.3837,1.3822,1.3827,1.3821,1.3815,1.3811,1.3794,1.3788,1.3779,1.3799,1.3778,1.3786,1.3782,1.3782,1.3783,1.3804,1.3805,1.3806,1.3806,0,1.3947,1.3936,1.3932,1.3924,1.392,1.3912,1.3903,1.3904,1.3877,1.3875,1.3871,1.3867,1.3858,1.3853,1.3844,1.3834,1.3817,1.3813,1.3816,1.3825,1.3833,1.383,1.3764,1.3812,1.3811,1.3811,1.3811,1.3811,1.3988,1.3991,1.3977,1.3973,1.3963,1.3955,1.3956,1.3942,1.3938,1.3929,1.3914,1.3913,1.3899,1.3885,1.3877,1.3875,1.3865,1.3869,1.3871,1.3873,1.3877,1.3831,1.3873,1.3873,1.3873,1.3873,1.3873,0,1.4039,1.4028,1.4025,1.4013,1.401,1.3991,1.398,1.3979,1.3978,1.3967,1.3962,1.3957,1.3952,1.3934,1.3927,1.393,1.3921,1.3929,1.393,1.3928,1.3886,1.3885,1.3936,1.3936,1.3936,1.3936,1.3936,1.3936,1.4066,1.4071,1.4059,1.4059,1.4048,1.4046,1.4041,1.4034,1.4025,1.4021,1.4017,1.4005,1.3991,1.3983,1.3977,1.3972,1.3972,1.3982,1.3975,1.3937,1.3931,1.3925,1.3924,1.3982,1.3982,1.4017,1.4017,1.4017]},{"header":{"parameterUnit":"m.s-1","parameterCategory":1,"la1":30.2991,"la2":30.254,"lo1":-89.0895,"lo2":-89.0444,"dy":0.0017,"dx":0.0017,"nx":28,"ny":28,"refTime":"2025-03-11T09:00:00:Z","depth":0,"parameterNumber":3,"parameterNumberName":"V-component_of_WINDS"},"data":[0,0,0,0,0,0,0,0,0,0,0,0,0,0,0,0,0,0,0,0,0,0,0,0,0,0,0,0,0,0,0,0,0,0,0,0,0,0,0,0,0,0,0,0,0,0,0,0,0,0,0,0,0,0,0,0,0,0,-0.897,-0.8969,0,-0.8959,-0.8959,-0.8959,-0.8956,-0.8956,-0.8957,-0.8957,-0.8944,-0.8943,-0.8943,0,0,0,0,0,0,0,0,0,0,0,0,0,-0.8986,-0.8985,-0.897,-0.8969,-0.8969,-0.8959,-0.8959,-0.8959,-0.8956,-0.8956,-0.8957,-0.8957,-0.8944,-0.8943,-0.8943,0,0,0,0,0,0,0,0,0,0,0,0,0,-0.8977,-0.8985,-0.897,-0.8967,-0.8967,-0.8959,-0.8959,-0.8959,-0.8956,-0.8956,-0.8957,-0.8957,-0.8944,-0.8943,-0.8943,-0.8937,0,0,-0.8941,-0.8941,0,0,0,0,0,0,0,0,-0.8978,-0.8977,-0.8967,-0.8967,-0.8967,-0.8959,-0.896,-0.8951,-0.8956,-0.896,-0.8957,-0.8957,-0.8949,-0.8948,-0.8945,-0.8936,-0.8936,-0.8941,-0.8941,-0.894,-0.894,0,0,0,0,0,0,0,-0.8978,-0.8977,-0.8965,-0.8967,-0.8967,-0.8966,-0.8965,-0.8958,-0.8954,-0.896,-0.896,-0.8959,-0.8948,-0.8946,-0.8945,-0.8935,-0.8941,-0.894,-0.894,-0.894,-0.892,-0.892,0,0,0,0,0,0,-0.898,-0.8978,-0.8966,-0.8965,-0.8973,-0.8965,-0.8964,-0.8961,-0.8954,-0.8953,-0.8958,-0.8958,-0.8947,-0.8946,-0.8945,-0.8937,-0.894,-0.894,-0.8939,-0.892,-0.892,-0.892,0,0,0,0,0,0,-0.898,-0.8979,-0.8966,-0.8971,-0.897,-0.8965,-0.8962,-0.8961,-0.8959,-0.8953,-0.8952,-0.8957,-0.8947,-0.8946,-0.8939,-0.8936,-0.8939,-0.8939,-0.8921,-0.892,-0.892,-0.8921,0,0,0,0,0,0,-0.898,-0.8979,-0.8977,-0.8971,-0.8969,-0.8961,-0.8962,-0.8961,-0.8958,-0.8958,-0.8951,-0.895,-0.8947,-0.894,-0.8938,-0.8935,-0.8938,-0.8921,-0.892,-0.892,-0.8921,-0.8921,-0.8921,0,0,0,0,0,-0.8981,-0.8977,-0.8977,-0.8975,-0.8967,-0.8961,-0.896,-0.8957,-0.8958,-0.8955,-0.8952,-0.895,-0.8937,-0.8939,-0.8937,-0.8934,-0.8921,-0.892,-0.892,-0.8921,-0.8921,-0.8921,0,0,0,0,0,0,-0.8982,-0.8976,-0.8976,-0.897,-0.8966,-0.8961,-0.8958,-0.8957,-0.8952,-0.8952,-0.8948,-0.8946,-0.894,-0.8936,-0.8939,-0.8928,-0.8929,-0.8928,-0.893,-0.893,-0.893,-0.893,-0.8938,0,0,0,0,0,-0.8982,-0.8978,-0.8973,-0.8968,-0.8966,-0.8962,-0.896,-0.8958,-0.8953,-0.8951,-0.8947,-0.8942,-0.8937,-0.8933,-0.8928,-0.8921,-0.8919,-0.8918,-0.8917,-0.8917,-0.8917,-0.8912,-0.8911,-0.8919,-0.8919,-0.8919,0,0,-0.898,-0.8977,-0.8975,-0.8968,-0.8965,-0.8961,-0.8961,-0.8956,-0.8953,-0.895,-0.8944,-0.8941,-0.8935,-0.8928,-0.8924,-0.8925,-0.8914,-0.8917,-0.8917,-0.8916,-0.8912,-0.8911,-0.891,-0.8919,-0.8919,-0.8919,0,0,-0.8976,-0.8974,-0.8969,-0.8966,-0.8961,-0.8959,-0.8958,-0.8952,-0.895,-0.8944,-0.8942,-0.8937,-0.8928,-0.8924,-0.8921,-0.8915,-0.8913,-0.8913,-0.8911,-0.8907,-0.8906,-0.8906,-0.8903,-0.8903,-0.8913,-0.8913,-0.8913,0,-0.8975,-0.8969,-0.8967,-0.8963,-0.896,-0.8958,-0.8953,-0.895,-0.8943,-0.8941,-0.8942,-0.893,-0.8926,-0.8918,-0.8917,-0.8914,-0.8912,-0.8914,-0.8907,-0.8906,-0.8906,-0.8903,-0.8902,-0.8913,-0.8913,-0.8913,-0.8913,0,-0.8968,-0.8964,-0.8961,-0.8955,-0.8952,-0.8947,-0.8944,-0.8941,-0.8939,-0.8936,-0.893,-0.8925,-0.8918,-0.8916,-0.8914,-0.8908,-0.8908,-0.8908,-0.8909,-0.8905,-0.8903,-0.8902,-0.8913,-0.8913,-0.8913,-0.8913,0,0,-0.8964,-0.8957,-0.8956,-0.8954,-0.8948,-0.8944,-0.894,-0.8934,-0.8931,-0.8927,-0.8922,-0.8914,-0.8914,-0.891,-0.8908,-0.8904,-0.8899,-0.8904,-0.8904,-0.8903,-0.8891,-0.8891,-0.889,-0.8899,-0.8898,-0.8898,-0.8891,0,-0.8959,-0.8951,-0.8949,-0.8941,-0.8937,-0.8935,-0.8931,-0.8927,-0.8924,-0.8919,-0.8916,-0.8911,-0.8911,-0.8909,-0.8905,-0.8901,-0.8897,-0.8901,-0.8893,-0.8893,-0.8895,-0.8889,-0.8889,-0.8882,-0.889,-0.889,-0.889,0,-0.8952,-0.8948,-0.894,-0.8935,-0.8933,-0.8929,-0.8924,-0.892,-0.8915,-0.8913,-0.8909,-0.8907,-0.8901,-0.8903,-0.8894,-0.8897,-0.8894,-0.8891,-0.8891,-0.8889,-0.8891,-0.8887,-0.888,-0.8879,-0.8889,-0.8889,-0.8889,0,-0.8949,-0.8941,-0.8936,-0.8934,-0.8928,-0.8925,-0.8922,-0.8918,-0.8914,-0.8909,-0.8907,-0.8901,-0.8898,-0.8893,-0.8889,-0.8891,-0.8881,-0.8882,-0.8878,-0.8878,-0.8876,-0.8876,-0.8868,-0.8874,-0.8874,-0.8874,-0.8875,0,-0.8943,-0.8938,-0.8935,-0.8931,-0.8926,-0.8923,-0.8918,-0.8915,-0.891,-0.8906,-0.8904,-0.89,-0.8895,-0.889,-0.8887,-0.888,-0.8878,-0.8876,-0.8875,-0.8876,-0.8876,-0.8873,-0.8874,-0.8874,-0.8874,-0.8874,-0.8874,0,-0.8939,-0.8936,-0.893,-0.8925,-0.8924,-0.892,-0.8915,-0.8912,-0.8909,-0.8903,-0.8901,-0.8897,-0.8891,-0.8887,-0.8878,-0.8876,-0.8868,-0.8868,-0.887,-0.887,-0.8866,-0.8866,-0.8856,-0.8854,-0.8862,-0.8862,-0.8862,0,-0.8935,-0.8931,-0.8926,-0.8923,-0.8921,-0.8916,-0.8913,-0.891,-0.8907,-0.8901,-0.8898,-0.8891,-0.8886,-0.8876,-0.8872,-0.8865,-0.8864,-0.8861,-0.8863,-0.8864,-0.8864,-0.8864,-0.8863,-0.8861,-0.886,-0.886,-0.886,0,-0.8928,-0.8927,-0.8923,-0.8918,-0.8915,-0.8911,-0.8907,-0.8904,-0.89,-0.8897,-0.8891,-0.8887,-0.8879,-0.8872,-0.8866,-0.8862,-0.886,-0.886,-0.8859,-0.8859,-0.886,-0.8859,-0.8869,-0.886,-0.886,-0.886,-0.886,-0.886,-0.8924,-0.892,-0.8916,-0.8912,-0.8908,-0.8905,-0.8901,-0.8898,-0.8893,-0.8887,-0.8885,-0.8879,-0.8873,-0.8864,-0.8861,-0.8855,-0.8855,-0.8853,-0.8853,-0.8852,-0.8852,-0.8862,-0.8854,-0.8854,-0.8854,-0.8854,-0.8854,0,-0.8917,-0.8914,-0.891,-0.8904,-0.8901,-0.89,-0.8896,-0.8892,-0.8887,-0.8882,-0.8878,-0.887,-0.8864,-0.8859,-0.8853,-0.8849,-0.8848,-0.8847,-0.8847,-0.8846,-0.8852,-0.8854,-0.8848,-0.8848,-0.8848,-0.8848,-0.8848,-0.8848,-0.8913,-0.8907,-0.8905,-0.8898,-0.8895,-0.8889,-0.8887,-0.8883,-0.8879,-0.8872,-0.8867,-0.8864,-0.8859,-0.8852,-0.8846,-0.8844,-0.8842,-0.8841,-0.8839,-0.8845,-0.8846,-0.8846,-0.8848,-0.8841,-0.8841,-0.8834,-0.8834,-0.8834]}]]